Date_Time,Julian_Date,Latitude,Longitude,Instrument_Depth,U,V,Speed,Direction
(yyyy-mm-dd hh:mn:ss UTC),(JD),(+ deg. North),(+ deg. East),(m),(cm/s),(cm/s),(cm/s),(deg True)
1985-05-07 02:28:00 UTC,2446192.602778,27.4197,-84.6250,0100,0.50,24.60,24.6051,1.1644
1985-05-07 02:58:00 UTC,2446192.623611,27.4197,-84.6250,0100,-1.10,20.90,20.9289,356.9872
1985-05-07 03:28:00 UTC,2446192.644444,27.4197,-84.6250,0100,-1.28,23.30,23.3351,356.8556
1985-05-07 03:58:00 UTC,2446192.665278,27.4197,-84.6250,0100,-0.05,19.70,19.7001,359.8546
1985-05-07 04:28:00 UTC,2446192.686111,27.4197,-84.6250,0100,3.65,18.10,18.4644,11.4012
1985-05-07 04:58:00 UTC,2446192.706944,27.4197,-84.6250,0100,2.13,16.48,16.6171,7.3645
1985-05-07 05:28:00 UTC,2446192.727778,27.4197,-84.6250,0100,1.03,13.48,13.5193,4.3695
1985-05-07 05:58:00 UTC,2446192.748611,27.4197,-84.6250,0100,0.63,11.65,11.6670,3.0954
1985-05-07 06:28:00 UTC,2446192.769444,27.4197,-84.6250,0100,0.50,11.65,11.6607,2.4575
1985-05-07 06:58:00 UTC,2446192.790278,27.4197,-84.6250,0100,1.68,11.53,11.6518,8.2900
1985-05-07 07:28:00 UTC,2446192.811111,27.4197,-84.6250,0100,0.28,9.18,9.1843,1.7470
1985-05-07 07:58:00 UTC,2446192.831944,27.4197,-84.6250,0100,0.18,4.90,4.9033,2.1038
1985-05-07 08:28:00 UTC,2446192.852778,27.4197,-84.6250,0100,-0.10,5.53,5.5309,358.9640
1985-05-07 08:58:00 UTC,2446192.873611,27.4197,-84.6250,0100,0.53,5.48,5.5056,5.5242
1985-05-07 09:28:00 UTC,2446192.894444,27.4197,-84.6250,0100,-0.40,3.03,3.0563,352.4797
1985-05-07 09:58:00 UTC,2446192.915278,27.4197,-84.6250,0100,-0.43,1.80,1.8506,346.5645
1985-05-07 10:28:00 UTC,2446192.936111,27.4197,-84.6250,0100,-0.20,1.82,1.8310,353.7289
1985-05-07 10:58:00 UTC,2446192.956944,27.4197,-84.6250,0100,-0.40,3.65,3.6719,353.7460
1985-05-07 11:28:00 UTC,2446192.977778,27.4197,-84.6250,0100,0.15,1.80,1.8062,4.7636
1985-05-07 11:58:00 UTC,2446192.998611,27.4197,-84.6250,0100,0.00,1.80,1.8000,0.0000
1985-05-07 12:28:00 UTC,2446193.019444,27.4197,-84.6250,0100,0.20,2.40,2.4083,4.7636
1985-05-07 12:58:00 UTC,2446193.040278,27.4197,-84.6250,0100,-0.45,1.80,1.8554,345.9637
1985-05-07 13:28:00 UTC,2446193.061111,27.4197,-84.6250,0100,-0.80,4.80,4.8662,350.5377
1985-05-07 13:58:00 UTC,2446193.081944,27.4197,-84.6250,0100,-0.98,4.80,4.8990,348.4607
1985-05-07 14:28:00 UTC,2446193.102778,27.4197,-84.6250,0100,-1.63,5.30,5.5450,342.9049
1985-05-07 14:58:00 UTC,2446193.123611,27.4197,-84.6250,0100,-0.85,4.80,4.8747,349.9580
1985-05-07 15:28:00 UTC,2446193.144444,27.4197,-84.6250,0100,-1.15,4.78,4.9164,346.4725
1985-05-07 15:58:00 UTC,2446193.165278,27.4197,-84.6250,0100,-2.03,7.10,7.3845,344.0439
1985-05-07 16:28:00 UTC,2446193.186111,27.4197,-84.6250,0100,-2.70,6.20,6.7624,336.4677
1985-05-07 16:58:00 UTC,2446193.206944,27.4197,-84.6250,0100,-3.55,7.18,8.0097,333.6909
1985-05-07 17:28:00 UTC,2446193.227778,27.4197,-84.6250,0100,-6.95,12.33,14.1538,330.5915
1985-05-07 17:58:00 UTC,2446193.248611,27.4197,-84.6250,0100,-5.43,10.35,11.6879,332.3168
1985-05-07 18:28:00 UTC,2446193.269444,27.4197,-84.6250,0100,-5.73,13.63,14.7855,337.1983
1985-05-07 18:58:00 UTC,2446193.290278,27.4197,-84.6250,0100,-6.00,14.85,16.0163,337.9993
1985-05-07 19:28:00 UTC,2446193.311111,27.4197,-84.6250,0100,-1.80,6.50,6.7446,344.5214
1985-05-07 19:58:00 UTC,2446193.331944,27.4197,-84.6250,0100,-2.98,6.73,7.3603,336.1165
1985-05-07 20:28:00 UTC,2446193.352778,27.4197,-84.6250,0100,-3.28,5.93,6.7767,331.0522
1985-05-07 20:58:00 UTC,2446193.373611,27.4197,-84.6250,0100,-2.38,7.63,7.9926,342.6759
1985-05-07 21:28:00 UTC,2446193.394444,27.4197,-84.6250,0100,-4.13,10.25,11.0508,338.0542
1985-05-07 21:58:00 UTC,2446193.415278,27.4197,-84.6250,0100,-4.15,9.58,10.4403,336.5780
1985-05-07 22:28:00 UTC,2446193.436111,27.4197,-84.6250,0100,-5.50,9.65,11.1073,330.3191
1985-05-07 22:58:00 UTC,2446193.456944,27.4197,-84.6250,0100,-6.45,13.98,15.3962,335.2327
1985-05-07 23:28:00 UTC,2446193.477778,27.4197,-84.6250,0100,-4.48,16.68,17.2712,344.9660
1985-05-07 23:58:00 UTC,2446193.498611,27.4197,-84.6250,0100,-4.33,16.07,16.6431,344.9200
1985-05-08 00:28:00 UTC,2446193.519444,27.4197,-84.6250,0100,-3.58,19.40,19.7276,349.5445
1985-05-08 00:58:00 UTC,2446193.540278,27.4197,-84.6250,0100,-4.68,17.25,17.8736,344.8208
1985-05-08 01:28:00 UTC,2446193.561111,27.4197,-84.6250,0100,-3.85,16.18,16.6317,346.6155
1985-05-08 01:58:00 UTC,2446193.581944,27.4197,-84.6250,0100,-2.90,17.00,17.2456,350.3192
1985-05-08 02:28:00 UTC,2446193.602778,27.4197,-84.6250,0100,-1.90,17.10,17.2052,353.6598
1985-05-08 02:58:00 UTC,2446193.623611,27.4197,-84.6250,0100,0.20,17.82,17.8211,0.6430
1985-05-08 03:28:00 UTC,2446193.644444,27.4197,-84.6250,0100,0.73,21.55,21.5624,1.9401
1985-05-08 03:58:00 UTC,2446193.665278,27.4197,-84.6250,0100,6.20,22.05,22.9051,15.7049
1985-05-08 04:28:00 UTC,2446193.686111,27.4197,-84.6250,0100,3.73,17.45,17.8442,12.0656
1985-05-08 04:58:00 UTC,2446193.706944,27.4197,-84.6250,0100,4.18,16.07,16.6047,14.5802
1985-05-08 05:28:00 UTC,2446193.727778,27.4197,-84.6250,0100,7.70,16.78,18.4624,24.6494
1985-05-08 05:58:00 UTC,2446193.748611,27.4197,-84.6250,0100,7.33,14.90,16.6054,26.1947
1985-05-08 06:28:00 UTC,2446193.769444,27.4197,-84.6250,0100,7.15,13.60,15.3650,27.7325
1985-05-08 06:58:00 UTC,2446193.790278,27.4197,-84.6250,0100,5.60,9.55,11.0708,30.3868
1985-05-08 07:28:00 UTC,2446193.811111,27.4197,-84.6250,0100,2.88,7.38,7.9220,21.3179
1985-05-08 07:58:00 UTC,2446193.831944,27.4197,-84.6250,0100,1.73,7.80,7.9895,12.5055
1985-05-08 08:28:00 UTC,2446193.852778,27.4197,-84.6250,0100,0.60,7.30,7.3246,4.6987
1985-05-08 08:58:00 UTC,2446193.873611,27.4197,-84.6250,0100,0.03,-0.45,0.4510,176.1859
1985-05-08 09:28:00 UTC,2446193.894444,27.4197,-84.6250,0100,-0.40,2.40,2.4331,350.5377
1985-05-08 09:58:00 UTC,2446193.915278,27.4197,-84.6250,0100,-0.28,2.43,2.4461,353.4270
1985-05-08 10:28:00 UTC,2446193.936111,27.4197,-84.6250,0100,-0.25,1.20,1.2258,348.2317
1985-05-08 10:58:00 UTC,2446193.956944,27.4197,-84.6250,0100,-0.33,1.18,1.2253,344.3758
1985-05-08 11:28:00 UTC,2446193.977778,27.4197,-84.6250,0100,-1.50,4.03,4.3001,339.5843
1985-05-08 11:58:00 UTC,2446193.998611,27.4197,-84.6250,0100,-0.35,1.15,1.2021,343.0725
1985-05-08 12:28:00 UTC,2446194.019444,27.4197,-84.6250,0100,-0.70,3.60,3.6674,348.9965
1985-05-08 12:58:00 UTC,2446194.040278,27.4197,-84.6250,0100,-1.33,5.40,5.5614,346.1637
1985-05-08 13:28:00 UTC,2446194.061111,27.4197,-84.6250,0100,-1.18,5.40,5.5274,347.6736
1985-05-08 13:58:00 UTC,2446194.081944,27.4197,-84.6250,0100,-1.15,3.50,3.6841,341.8109
1985-05-08 14:28:00 UTC,2446194.102778,27.4197,-84.6250,0100,-0.75,1.65,1.8125,335.5561
1985-05-08 14:58:00 UTC,2446194.123611,27.4197,-84.6250,0100,-1.30,2.10,2.4698,328.2405
1985-05-08 15:28:00 UTC,2446194.144444,27.4197,-84.6250,0100,-2.48,2.78,3.7254,318.2643
1985-05-08 15:58:00 UTC,2446194.165278,27.4197,-84.6250,0100,-3.65,4.95,6.1502,323.5959
1985-05-08 16:28:00 UTC,2446194.186111,27.4197,-84.6250,0100,-2.98,7.38,7.9589,338.0114
1985-05-08 16:58:00 UTC,2446194.206944,27.4197,-84.6250,0100,-2.00,6.43,6.7339,342.7221
1985-05-08 17:28:00 UTC,2446194.227778,27.4197,-84.6250,0100,-1.15,4.80,4.9358,346.5269
1985-05-08 17:58:00 UTC,2446194.248611,27.4197,-84.6250,0100,-0.85,4.20,4.2851,348.5590
1985-05-08 18:28:00 UTC,2446194.269444,27.4197,-84.6250,0100,-1.98,5.83,6.1571,341.2414
1985-05-08 18:58:00 UTC,2446194.290278,27.4197,-84.6250,0100,-0.80,2.30,2.4352,340.8210
1985-05-08 19:28:00 UTC,2446194.311111,27.4197,-84.6250,0100,-3.95,6.23,7.3767,327.6241
1985-05-08 19:58:00 UTC,2446194.331944,27.4197,-84.6250,0100,-4.10,4.65,6.1994,318.5967
1985-05-08 20:28:00 UTC,2446194.352778,27.4197,-84.6250,0100,-5.13,5.33,7.3977,316.0954
1985-05-08 20:58:00 UTC,2446194.373611,27.4197,-84.6250,0100,-4.40,6.00,7.4404,323.7462
1985-05-08 21:28:00 UTC,2446194.394444,27.4197,-84.6250,0100,-4.30,7.50,8.6452,330.1729
1985-05-08 21:58:00 UTC,2446194.415278,27.4197,-84.6250,0100,-5.15,8.04,9.5480,327.3585
1985-05-08 22:28:00 UTC,2446194.436111,27.4197,-84.6250,0100,-6.00,8.58,10.4698,325.0349
1985-05-08 22:58:00 UTC,2446194.456944,27.4197,-84.6250,0100,-9.03,10.93,14.1777,320.4376
1985-05-08 23:28:00 UTC,2446194.477778,27.4197,-84.6250,0100,-10.03,11.73,15.4335,319.4672
1985-05-08 23:58:00 UTC,2446194.498611,27.4197,-84.6250,0100,-8.25,13.78,16.0609,329.0913
1985-05-09 00:28:00 UTC,2446194.519444,27.4197,-84.6250,0100,-6.38,12.65,14.1678,333.2360
1985-05-09 00:58:00 UTC,2446194.540278,27.4197,-84.6250,0100,-6.50,13.95,15.3900,335.0168
1985-05-09 01:28:00 UTC,2446194.561111,27.4197,-84.6250,0100,-5.70,18.85,19.6930,343.1754
1985-05-09 01:58:00 UTC,2446194.581944,27.4197,-84.6250,0100,-5.23,19.65,20.3341,345.0958
1985-05-09 02:28:00 UTC,2446194.602778,27.4197,-84.6250,0100,-5.65,20.80,21.5537,344.8032
1985-05-09 02:58:00 UTC,2446194.623611,27.4197,-84.6250,0100,-4.88,19.13,19.7426,345.6892
1985-05-09 03:28:00 UTC,2446194.644444,27.4197,-84.6250,0100,-2.25,19.58,19.7089,353.4447
1985-05-09 03:58:00 UTC,2446194.665278,27.4197,-84.6250,0100,13.15,24.23,27.5684,28.4894
1985-05-09 04:28:00 UTC,2446194.686111,27.4197,-84.6250,0100,9.00,17.45,19.6342,27.2828
1985-05-09 04:58:00 UTC,2446194.706944,27.4197,-84.6250,0100,8.20,17.90,19.6888,24.6125
1985-05-09 05:28:00 UTC,2446194.727778,27.4197,-84.6250,0100,8.80,14.08,16.6038,32.0054
1985-05-09 05:58:00 UTC,2446194.748611,27.4197,-84.6250,0100,6.55,8.90,11.0505,36.3514
1985-05-09 06:28:00 UTC,2446194.769444,27.4197,-84.6250,0100,0.80,9.18,9.2148,4.9805
1985-05-09 06:58:00 UTC,2446194.790278,27.4197,-84.6250,0100,1.30,7.85,7.9569,9.4031
1985-05-09 07:28:00 UTC,2446194.811111,27.4197,-84.6250,0100,0.25,5.50,5.5057,2.6026
1985-05-09 07:58:00 UTC,2446194.831944,27.4197,-84.6250,0100,0.30,4.28,4.2905,4.0095
1985-05-09 08:28:00 UTC,2446194.852778,27.4197,-84.6250,0100,0.85,2.90,3.0220,16.3360
1985-05-09 08:58:00 UTC,2446194.873611,27.4197,-84.6250,0100,0.00,0.00,0.0000,0.0000
1985-05-09 09:28:00 UTC,2446194.894444,27.4197,-84.6250,0100,-0.23,1.80,1.8146,352.7183
1985-05-09 09:58:00 UTC,2446194.915278,27.4197,-84.6250,0100,-1.18,4.10,4.2664,343.9439
1985-05-09 10:28:00 UTC,2446194.936111,27.4197,-84.6250,0100,-2.53,4.90,5.5146,332.6915
1985-05-09 10:58:00 UTC,2446194.956944,27.4197,-84.6250,0100,-2.18,3.75,4.3376,329.8291
1985-05-09 11:28:00 UTC,2446194.977778,27.4197,-84.6250,0100,-1.50,4.03,4.3001,339.5843
1985-05-09 11:58:00 UTC,2446194.998611,27.4197,-84.6250,0100,-1.10,2.88,3.0829,339.0959
1985-05-09 12:28:00 UTC,2446195.019444,27.4197,-84.6250,0100,-1.70,3.93,4.2819,336.6082
1985-05-09 12:58:00 UTC,2446195.040278,27.4197,-84.6250,0100,-0.83,1.65,1.8470,333.2962
1985-05-09 13:28:00 UTC,2446195.061111,27.4197,-84.6250,0100,-2.98,3.90,4.9082,322.6165
1985-05-09 13:58:00 UTC,2446195.081944,27.4197,-84.6250,0100,-4.53,6.63,8.0298,325.6569
1985-05-09 14:28:00 UTC,2446195.102778,27.4197,-84.6250,0100,-5.75,9.50,11.1046,328.8150
1985-05-09 14:58:00 UTC,2446195.123611,27.4197,-84.6250,0100,-6.25,12.73,14.1815,333.8505
1985-05-09 15:28:00 UTC,2446195.144444,27.4197,-84.6250,0100,-3.45,8.50,9.1735,337.9086
1985-05-09 15:58:00 UTC,2446195.165278,27.4197,-84.6250,0100,-3.30,9.25,9.8210,340.3658
1985-05-09 16:28:00 UTC,2446195.186111,27.4197,-84.6250,0100,-3.28,12.50,12.9232,345.2971
1985-05-09 16:58:00 UTC,2446195.206944,27.4197,-84.6250,0100,-3.03,15.13,15.4304,348.6755
1985-05-09 17:28:00 UTC,2446195.227778,27.4197,-84.6250,0100,-2.95,11.30,11.6787,345.3688
1985-05-09 17:58:00 UTC,2446195.248611,27.4197,-84.6250,0100,-1.88,10.90,11.0609,350.2141
1985-05-09 18:28:00 UTC,2446195.269444,27.4197,-84.6250,0100,-2.75,10.73,11.0768,345.6250
1985-05-09 18:58:00 UTC,2446195.290278,27.4197,-84.6250,0100,-3.58,9.83,10.4616,339.9888
1985-05-09 19:28:00 UTC,2446195.311111,27.4197,-84.6250,0100,-2.60,5.55,6.1288,334.8984
1985-05-09 19:58:00 UTC,2446195.331944,27.4197,-84.6250,0100,-3.03,6.05,6.7663,333.3971
1985-05-09 20:28:00 UTC,2446195.352778,27.4197,-84.6250,0100,-3.98,6.98,8.0350,330.3082
1985-05-09 20:58:00 UTC,2446195.373611,27.4197,-84.6250,0100,-7.95,15.33,17.2688,332.5891
1985-05-09 21:28:00 UTC,2446195.394444,27.4197,-84.6250,0100,-5.65,8.80,10.4577,327.2977
1985-05-09 21:58:00 UTC,2446195.415278,27.4197,-84.6250,0100,-4.33,6.73,8.0026,327.2433
1985-05-09 22:28:00 UTC,2446195.436111,27.4197,-84.6250,0100,-6.78,17.85,19.0943,339.2016
1985-05-09 22:58:00 UTC,2446195.456944,27.4197,-84.6250,0100,-7.45,18.93,20.3432,338.5176
1985-05-09 23:28:00 UTC,2446195.477778,27.4197,-84.6250,0100,-8.15,17.95,19.7136,335.5801
1985-05-09 23:58:00 UTC,2446195.498611,27.4197,-84.6250,0100,-6.78,15.83,17.2208,336.8145
1985-05-10 00:28:00 UTC,2446195.519444,27.4197,-84.6250,0100,-3.85,20.38,20.7405,349.3023
1985-05-10 00:58:00 UTC,2446195.540278,27.4197,-84.6250,0100,-3.10,17.63,17.9005,350.0273
1985-05-10 01:28:00 UTC,2446195.561111,27.4197,-84.6250,0100,1.55,19.00,19.0631,4.6638
1985-05-10 01:58:00 UTC,2446195.581944,27.4197,-84.6250,0100,0.33,14.78,14.7837,1.2791
1985-05-10 02:28:00 UTC,2446195.602778,27.4197,-84.6250,0100,3.45,14.35,14.7589,13.5184
1985-05-10 02:58:00 UTC,2446195.623611,27.4197,-84.6250,0100,5.03,13.20,14.1259,20.8599
1985-05-10 03:28:00 UTC,2446195.644444,27.4197,-84.6250,0100,3.38,8.53,9.1753,21.6159
1985-05-10 03:58:00 UTC,2446195.665278,27.4197,-84.6250,0100,1.60,7.80,7.9624,11.5922
1985-05-10 04:28:00 UTC,2446195.686111,27.4197,-84.6250,0100,2.13,6.43,6.7736,18.3280
1985-05-10 04:58:00 UTC,2446195.706944,27.4197,-84.6250,0100,2.50,8.85,9.1963,15.7742
1985-05-10 05:28:00 UTC,2446195.727778,27.4197,-84.6250,0100,2.10,8.30,8.5615,14.1986
1985-05-10 05:58:00 UTC,2446195.748611,27.4197,-84.6250,0100,2.30,6.33,6.7349,19.9686
1985-05-10 06:28:00 UTC,2446195.769444,27.4197,-84.6250,0100,2.55,5.50,6.0624,24.8742
1985-05-10 06:58:00 UTC,2446195.790278,27.4197,-84.6250,0100,1.30,4.70,4.8765,15.4612
1985-05-10 07:28:00 UTC,2446195.811111,27.4197,-84.6250,0100,1.73,4.58,4.8958,20.6930
1985-05-10 07:58:00 UTC,2446195.831944,27.4197,-84.6250,0100,1.73,3.88,4.2482,24.0310
1985-05-10 08:28:00 UTC,2446195.852778,27.4197,-84.6250,0100,0.20,1.20,1.2166,9.4623
1985-05-10 08:58:00 UTC,2446195.873611,27.4197,-84.6250,0100,0.23,1.80,1.8146,7.2817
1985-05-10 09:28:00 UTC,2446195.894444,27.4197,-84.6250,0100,0.10,0.78,0.7864,7.3058
1985-05-10 09:58:00 UTC,2446195.915278,27.4197,-84.6250,0100,0.30,-1.70,1.7263,169.9920
1985-05-10 10:28:00 UTC,2446195.936111,27.4197,-84.6250,0100,0.00,0.00,0.0000,0.0000
1985-05-10 10:58:00 UTC,2446195.956944,27.4197,-84.6250,0100,-0.80,2.30,2.4352,340.8210
1985-05-10 11:28:00 UTC,2446195.977778,27.4197,-84.6250,0100,-0.35,1.15,1.2021,343.0725
1985-05-10 11:58:00 UTC,2446195.998611,27.4197,-84.6250,0100,0.35,-0.80,0.8732,156.3706
1985-05-10 12:28:00 UTC,2446196.019444,27.4197,-84.6250,0100,-1.05,1.50,1.8310,325.0080
1985-05-10 12:58:00 UTC,2446196.040278,27.4197,-84.6250,0100,-0.30,0.23,0.3780,307.4762
1985-05-10 13:28:00 UTC,2446196.061111,27.4197,-84.6250,0100,-4.20,4.50,6.1555,316.9749
1985-05-10 13:58:00 UTC,2446196.081944,27.4197,-84.6250,0100,-2.65,2.60,3.7125,314.4543
1985-05-10 14:28:00 UTC,2446196.102778,27.4197,-84.6250,0100,-2.33,2.02,3.0837,310.9237
1985-05-10 14:58:00 UTC,2446196.123611,27.4197,-84.6250,0100,-2.75,2.45,3.6831,311.6982
1985-05-10 15:28:00 UTC,2446196.144444,27.4197,-84.6250,0100,-2.65,2.60,3.7125,314.4543
1985-05-10 15:58:00 UTC,2446196.165278,27.4197,-84.6250,0100,-1.80,1.70,2.4759,313.3634
1985-05-10 16:28:00 UTC,2446196.186111,27.4197,-84.6250,0100,-4.08,4.68,6.2088,318.9182
1985-05-10 16:58:00 UTC,2446196.206944,27.4197,-84.6250,0100,-3.80,4.05,5.5536,316.8241
1985-05-10 17:28:00 UTC,2446196.227778,27.4197,-84.6250,0100,-2.08,2.27,3.0788,317.5010
1985-05-10 17:58:00 UTC,2446196.248611,27.4197,-84.6250,0100,-3.03,4.63,5.5333,326.7982
1985-05-10 18:28:00 UTC,2446196.269444,27.4197,-84.6250,0100,-3.70,6.35,7.3493,329.7716
1985-05-10 18:58:00 UTC,2446196.290278,27.4197,-84.6250,0100,-3.80,7.75,8.6315,333.8802
1985-05-10 19:28:00 UTC,2446196.311111,27.4197,-84.6250,0100,-2.90,6.78,7.3742,336.8422
1985-05-10 19:58:00 UTC,2446196.331944,27.4197,-84.6250,0100,-4.78,7.95,9.2764,328.9833
1985-05-10 20:28:00 UTC,2446196.352778,27.4197,-84.6250,0100,-6.70,9.60,11.7068,325.0882
1985-05-10 20:58:00 UTC,2446196.373611,27.4197,-84.6250,0100,-6.40,10.58,12.3651,328.8296
1985-05-10 21:28:00 UTC,2446196.394444,27.4197,-84.6250,0100,-8.48,12.88,15.4209,326.6397
1985-05-10 21:58:00 UTC,2446196.415278,27.4197,-84.6250,0100,-9.55,12.88,16.0342,323.4445
1985-05-10 22:28:00 UTC,2446196.436111,27.4197,-84.6250,0100,-12.50,15.30,19.7570,320.7514
1985-05-10 22:58:00 UTC,2446196.456944,27.4197,-84.6250,0100,-12.00,16.48,20.3860,323.9396
1985-05-10 23:28:00 UTC,2446196.477778,27.4197,-84.6250,0100,-10.18,13.95,17.2695,323.8799
1985-05-10 23:58:00 UTC,2446196.498611,27.4197,-84.6250,0100,-10.30,16.10,19.1128,327.3909
1985-05-11 00:28:00 UTC,2446196.519444,27.4197,-84.6250,0100,-11.28,16.20,19.7403,325.1506
1985-05-11 00:58:00 UTC,2446196.540278,27.4197,-84.6250,0100,-5.28,13.13,14.1519,338.0934
1985-05-11 01:28:00 UTC,2446196.561111,27.4197,-84.6250,0100,-7.03,13.70,15.3984,332.8359
1985-05-11 01:58:00 UTC,2446196.581944,27.4197,-84.6250,0100,-4.65,12.73,13.5527,339.9338
1985-05-11 02:28:00 UTC,2446196.602778,27.4197,-84.6250,0100,-3.40,11.18,11.6856,343.0847
1985-05-11 02:58:00 UTC,2446196.623611,27.4197,-84.6250,0100,-0.50,16.60,16.6075,358.2747
1985-05-11 03:28:00 UTC,2446196.644444,27.4197,-84.6250,0100,-0.13,11.05,11.0508,359.3260
1985-05-11 03:58:00 UTC,2446196.665278,27.4197,-84.6250,0100,0.18,6.73,6.7324,1.5321
1985-05-11 04:28:00 UTC,2446196.686111,27.4197,-84.6250,0100,1.50,5.90,6.0877,14.2645
1985-05-11 04:58:00 UTC,2446196.706944,27.4197,-84.6250,0100,0.30,4.28,4.2905,4.0095
1985-05-11 05:28:00 UTC,2446196.727778,27.4197,-84.6250,0100,1.05,8.50,8.5646,7.0420
1985-05-11 05:58:00 UTC,2446196.748611,27.4197,-84.6250,0100,3.15,9.28,9.8000,18.7492
1985-05-11 06:28:00 UTC,2446196.769444,27.4197,-84.6250,0100,2.30,6.98,7.3492,18.2377
1985-05-11 06:58:00 UTC,2446196.790278,27.4197,-84.6250,0100,3.25,8.55,9.1469,20.8126
1985-05-11 07:28:00 UTC,2446196.811111,27.4197,-84.6250,0100,0.80,4.20,4.2755,10.7843
1985-05-11 07:58:00 UTC,2446196.831944,27.4197,-84.6250,0100,0.38,3.00,3.0240,7.2190
1985-05-11 08:28:00 UTC,2446196.852778,27.4197,-84.6250,0100,0.25,2.43,2.4428,5.8740
1985-05-11 08:58:00 UTC,2446196.873611,27.4197,-84.6250,0100,-0.15,0.35,0.3808,336.8014
1985-05-11 09:28:00 UTC,2446196.894444,27.4197,-84.6250,0100,0.13,1.80,1.8047,4.1309
1985-05-11 09:58:00 UTC,2446196.915278,27.4197,-84.6250,0100,0.00,0.60,0.6000,0.0000
1985-05-11 10:28:00 UTC,2446196.936111,27.4197,-84.6250,0100,0.38,2.40,2.4299,8.9971
1985-05-11 10:58:00 UTC,2446196.956944,27.4197,-84.6250,0100,-0.20,1.20,1.2166,350.5377
1985-05-11 11:28:00 UTC,2446196.977778,27.4197,-84.6250,0100,-0.07,2.43,2.4310,358.3500
1985-05-11 11:58:00 UTC,2446196.998611,27.4197,-84.6250,0100,-1.00,2.88,3.0487,340.8519
1985-05-11 12:28:00 UTC,2446197.019444,27.4197,-84.6250,0100,-2.15,4.40,4.8972,333.9582
1985-05-11 12:58:00 UTC,2446197.040278,27.4197,-84.6250,0100,-1.65,3.30,3.6895,333.4349
1985-05-11 13:28:00 UTC,2446197.061111,27.4197,-84.6250,0100,-1.00,2.23,2.4440,335.8471
1985-05-11 13:58:00 UTC,2446197.081944,27.4197,-84.6250,0100,-2.63,6.23,6.7624,337.1129
1985-05-11 14:28:00 UTC,2446197.102778,27.4197,-84.6250,0100,-2.88,6.80,7.3847,337.0459
1985-05-11 14:58:00 UTC,2446197.123611,27.4197,-84.6250,0100,-3.05,5.35,6.1583,330.3128
1985-05-11 15:28:00 UTC,2446197.144444,27.4197,-84.6250,0100,-2.70,4.10,4.9092,326.6336
1985-05-11 15:58:00 UTC,2446197.165278,27.4197,-84.6250,0100,-5.95,6.25,8.6293,316.4086
1985-05-11 16:28:00 UTC,2446197.186111,27.4197,-84.6250,0100,-5.25,7.63,9.2617,325.4692
1985-05-11 16:58:00 UTC,2446197.206944,27.4197,-84.6250,0100,-9.80,14.23,17.2781,325.4454
1985-05-11 17:28:00 UTC,2446197.227778,27.4197,-84.6250,0100,-9.40,14.50,17.2803,327.0456
1985-05-11 17:58:00 UTC,2446197.248611,27.4197,-84.6250,0100,-9.20,16.03,18.4824,330.1475
1985-05-11 18:28:00 UTC,2446197.269444,27.4197,-84.6250,0100,-8.25,15.15,17.2507,331.4293
1985-05-11 18:58:00 UTC,2446197.290278,27.4197,-84.6250,0100,-8.55,23.15,24.6784,339.7293
1985-05-11 19:28:00 UTC,2446197.311111,27.4197,-84.6250,0100,-8.80,24.93,26.4376,340.5576
1985-05-11 19:58:00 UTC,2446197.331944,27.4197,-84.6250,0100,-6.98,25.80,26.7275,344.8615
1985-05-11 20:28:00 UTC,2446197.352778,27.4197,-84.6250,0100,-7.68,27.15,28.2153,344.2052
1985-05-11 20:58:00 UTC,2446197.373611,27.4197,-84.6250,0100,-6.70,26.20,27.0431,345.6555
1985-05-11 21:28:00 UTC,2446197.394444,27.4197,-84.6250,0100,-4.18,25.77,26.1068,350.7866
1985-05-11 21:58:00 UTC,2446197.415278,27.4197,-84.6250,0100,-3.20,25.33,25.5313,352.7998
1985-05-11 22:28:00 UTC,2446197.436111,27.4197,-84.6250,0100,-3.98,26.13,26.4314,351.3395
1985-05-11 22:58:00 UTC,2446197.456944,27.4197,-84.6250,0100,-2.00,27.25,27.3233,355.8023
1985-05-11 23:28:00 UTC,2446197.477778,27.4197,-84.6250,0100,-1.03,27.00,27.0196,357.8153
1985-05-11 23:58:00 UTC,2446197.498611,27.4197,-84.6250,0100,1.40,27.27,27.3059,2.9389
1985-05-12 00:28:00 UTC,2446197.519444,27.4197,-84.6250,0100,1.00,30.25,30.2665,1.8934
1985-05-12 00:58:00 UTC,2446197.540278,27.4197,-84.6250,0100,2.68,27.48,27.6104,5.5702
1985-05-12 01:28:00 UTC,2446197.561111,27.4197,-84.6250,0100,4.20,26.38,26.7123,9.0462
1985-05-12 01:58:00 UTC,2446197.581944,27.4197,-84.6250,0100,3.98,26.10,26.4017,8.6703
1985-05-12 02:28:00 UTC,2446197.602778,27.4197,-84.6250,0100,4.25,20.48,20.9163,11.7236
1985-05-12 02:58:00 UTC,2446197.623611,27.4197,-84.6250,0100,6.30,22.65,23.5098,15.5437
1985-05-12 03:28:00 UTC,2446197.644444,27.4197,-84.6250,0100,3.10,17.60,17.8709,9.9894
1985-05-12 03:58:00 UTC,2446197.665278,27.4197,-84.6250,0100,4.20,17.98,18.4640,13.1481
1985-05-12 04:28:00 UTC,2446197.686111,27.4197,-84.6250,0100,5.03,18.40,19.0751,15.2894
1985-05-12 04:58:00 UTC,2446197.706944,27.4197,-84.6250,0100,8.20,15.10,17.1828,28.5040
1985-05-12 05:28:00 UTC,2446197.727778,27.4197,-84.6250,0100,5.35,9.68,11.0601,28.9288
1985-05-12 05:58:00 UTC,2446197.748611,27.4197,-84.6250,0100,5.83,9.38,11.0442,31.8624
1985-05-12 06:28:00 UTC,2446197.769444,27.4197,-84.6250,0100,5.68,8.73,10.4151,33.0492
1985-05-12 06:58:00 UTC,2446197.790278,27.4197,-84.6250,0100,5.05,6.95,8.5910,36.0029
1985-05-12 07:28:00 UTC,2446197.811111,27.4197,-84.6250,0100,6.40,7.40,9.7837,40.8554
1985-05-12 07:58:00 UTC,2446197.831944,27.4197,-84.6250,0100,6.83,7.03,9.8015,44.1733
1985-05-12 08:28:00 UTC,2446197.852778,27.4197,-84.6250,0100,5.53,5.68,7.9274,44.2334
1985-05-12 08:58:00 UTC,2446197.873611,27.4197,-84.6250,0100,4.25,3.50,5.5057,50.5275
1985-05-12 09:28:00 UTC,2446197.894444,27.4197,-84.6250,0100,-0.65,-0.65,0.9192,225.0000
1985-05-12 09:58:00 UTC,2446197.915278,27.4197,-84.6250,0100,-0.88,-1.00,1.3321,221.3478
1985-05-12 10:28:00 UTC,2446197.936111,27.4197,-84.6250,0100,-0.18,-0.25,0.3081,215.7539
1985-05-12 10:58:00 UTC,2446197.956944,27.4197,-84.6250,0100,-0.30,-1.28,1.3147,193.1906
1985-05-12 11:28:00 UTC,2446197.977778,27.4197,-84.6250,0100,-0.07,-1.78,1.7814,182.2521
1985-05-12 11:58:00 UTC,2446197.998611,27.4197,-84.6250,0100,0.20,-1.80,1.8111,173.6598
1985-05-12 12:28:00 UTC,2446198.019444,27.4197,-84.6250,0100,0.65,-1.13,1.3036,150.0916
1985-05-12 12:58:00 UTC,2446198.040278,27.4197,-84.6250,0100,0.00,0.00,0.0000,0.0000
1985-05-12 13:28:00 UTC,2446198.061111,27.4197,-84.6250,0100,-1.53,1.05,1.8556,304.4608
1985-05-12 13:58:00 UTC,2446198.081944,27.4197,-84.6250,0100,-3.25,1.82,3.7249,299.2488
1985-05-12 14:28:00 UTC,2446198.102778,27.4197,-84.6250,0100,-5.60,2.65,6.1954,295.3242
1985-05-12 14:58:00 UTC,2446198.123611,27.4197,-84.6250,0100,-6.60,4.58,8.0335,304.7583
1985-05-12 15:28:00 UTC,2446198.144444,27.4197,-84.6250,0100,-8.48,6.18,10.4930,306.0836
1985-05-12 15:58:00 UTC,2446198.165278,27.4197,-84.6250,0100,-8.83,7.78,11.7685,311.3829
1985-05-12 16:28:00 UTC,2446198.186111,27.4197,-84.6250,0100,-13.15,8.10,15.4445,301.6318
1985-05-12 16:58:00 UTC,2446198.206944,27.4197,-84.6250,0100,-12.60,10.93,16.6801,310.9403